Location: Las Callecitas
(9.8750°N, 67.4611°W)
Time: 03:02:41
(UTC+00:00)

Cosmos 1048 Rocket - Pass Details

Date: 14 April 2024
Orbit: 742 x 788 km, 74.0° (Epoch: 19 May)

Event Time Altitude Azimuth Distance (km) Brightness Sun altitude
Exits shadow 08:39:56 48° 319° (NW) 1,011 4.4 -24.9°
Drops below altitude 10° 08:44:13 10° 0° (N) 2,329 6.7 -23.8°
Sets 08:46:39 0° 5° (N) 3,251 7.5 -23.3°
